This demonstration page uses our WeatherBlox Daily Observations layout. Learn more.

Left ArrowRight Arrow

Hourly Observations for January 19, 2017

Temp ( °F °C ) Dew Point ( °F °C ) Humidity (%) Winds ( mph kmh ) Pressure ( in mb ) Visibility ( mi km ) Precip ( " mm )
12:53 am 00:53 Clear 43 6.1 37 2.8 80 80 SW 9 15 29.87 1012 10 16 0.00 0.00
1:53 am 01:53 Clear 43 6.1 37 2.8 80 80 SSW 9 15 29.84 1011 10 16 0.00 0.00
2:53 am 02:53 Clear 41 5 36 2.2 82 82 SSW 9 15 29.83 1010 10 16 0.00 0.00
3:53 am 03:53 Clear 43 6.1 37 2.8 80 80 SSW 9 15 29.80 1009 10 16 0.00 0.00
4:53 am 04:53 Clear 45 7.2 36 2.2 71 71 SW 13 20 29.78 1008 10 16 0.00 0.00
5:53 am 05:53 Clear 46 7.8 36 2.2 68 68 SW 14 22 29.75 1008 10 16 0.00 0.00
6:53 am 06:53 Clear 45 7.2 36 2.2 71 71 SW 13 20 29.76 1008 10 16 0.00 0.00
7:53 am 07:53 Sunny 46 7.8 36 2.2 68 68 SW 15 24 29.76 1008 10 16 0.00 0.00
8:53 am 08:53 Sunny 49 9.4 36 2.2 61 61 WSW 14 22 29.76 1008 10 16 0.00 0.00
9:53 am 09:53 Sunny 55 12.8 37 2.8 51 51 WSW 23 37 29.75 1008 10 16 0.00 0.00
10:53 am 10:53 Sunny 59 15 34 1.1 39 39 W 32 52 29.75 1007 10 16 0.00 0.00
11:53 am 11:53 Sunny 62 16.7 31 -0.6 31 31 W 25 41 29.73 1007 10 16 0.00 0.00
12:53 pm 12:53 Sunny 64 17.8 31 -0.6 29 29 W 32 52 29.69 1005 10 16 0.00 0.00
1:53 pm 13:53 Sunny 65 18.3 30 -1.1 27 27 W 25 41 29.65 1004 10 16 0.00 0.00
2:53 pm 14:53 Sunny 65 18.3 28 -2.2 25 25 W 31 50 29.65 1004 10 16 0.00 0.00
3:53 pm 15:53 Sunny 62 16.7 26 -3.3 25 25 W 31 50 29.64 1004 10 16 0.00 0.00
4:53 pm 16:53 Sunny 62 16.7 29 -1.7 29 29 W 22 35 29.65 1004 10 16 0.00 0.00
5:53 pm 17:53 Sunny 60 15.6 28 -2.2 30 30 W 23 37 29.65 1004 10 16 0.00 0.00
6:53 pm 18:53 Clear 58 14.4 29 -1.7 33 33 W 15 24 29.67 1005 10 16 0.00 0.00
7:53 pm 19:53 Clear 57 13.9 28 -2.2 33 33 W 15 24 29.69 1005 10 16 0.00 0.00
8:53 pm 20:53 Clear 56 13.3 27 -2.8 33 33 WSW 20 31 29.67 1005 10 16 0.00 0.00
9:53 pm 21:53 Clear 55 12.8 27 -2.8 34 34 WSW 21 33 29.67 1005 10 16 0.00 0.00
10:53 pm 22:53 Clear 53 11.7 28 -2.2 38 38 W 16 26 29.69 1006 10 16 0.00 0.00
11:53 pm 23:53 Clear 52 11.1 30 -1.1 43 43 W 17 28 29.70 1006 10 16 0.00 0.00

Powered by AerisWeather